Wind_Speed
8 7 7 6 8 9 10 9 9 9 9 9 9 8 8 7 7 7 7 7 7 7 6 7 7 7 7 6 6 6 6 6 6 6 6 6 5 5 4 4 3 3 3
9 9 8 8 9 10 9 9 9 9 8 8 8 7 6 6 6 7 6 7 7 6 6 6 7 7 6 6 6 6 6 6 6 6 5 5 5 5 4 4 3 2 3
9 9 10 10 9 9 9 9 8 8 8 7 7 6 6 5 6 6 6 6 6 6 6 6 6 6 6 5 5 5 5 5 5 5 4 4 4 5 5 4 4 3 2
9 9 9 9 9 8 8 7 8 7 7 7 6 6 6 5 5 5 5 5 6 6 5 5 5 5 5 5 5 5 4 4 4 4 4 3 4 4 4 4 3 3 3
8 9 9 8 8 7 7 7 6 5 5 5 5 5 5 5 5 5 5 4 4 5 5 5 5 4 4 4 4 4 4 3 3 3 3 3 3 3 3 2 3 3 3
7 8 8 8 7 7 6 6 5 5 5 5 4 5 5 4 4 4 4 4 3 4 5 4 4 4 4 3 3 3 3 2 3 2 2 2 2 2 2 1 2 2 2
7 7 7 7 7 6 6 6 6 5 4 4 3 4 4 4 4 4 4 3 3 3 4 3 3 4 4 3 2 2 2 2 2 1 1 1 1 1 1 1 1 2 2
6 6 6 7 6 6 6 6 5 5 4 4 3 4 4 4 3 3 3 3 3 3 3 2 2 4 4 3 2 2 2 2 1 1 1 1 1 1 1 1 1 1 1
6 6 6 6 6 6 5 4 4 4 4 4 4 3 3 4 3 2 2 3 3 3 3 3 2 4 3 3 2 2 2 1 1 0 1 1 1 1 1 1 1 1 1
6 6 5 5 5 5 4 3 3 3 3 3 3 3 3 2 2 2 2 2 2 4 4 4 4 5 4 3 3 3 2 1 1 1 1 1 1 1 1 0 1 1 1
7 6 5 5 5 4 4 3 2 2 2 2 2 2 3 3 2 1 2 2 2 3 4 4 5 5 5 4 4 4 3 3 2 2 2 2 2 2 1 1 1 1 1
7 6 6 5 4 4 3 3 2 2 2 3 2 2 1 2 2 2 2 3 4 4 5 5 5 6 6 6 6 5 5 4 3 3 2 2 2 3 2 2 2 2 1
8 7 7 5 4 3 3 2 2 2 3 2 1 2 2 2 2 3 3 4 5 5 5 6 5 6 7 7 7 6 5 5 4 4 3 3 3 4 3 3 2 2 2
8 7 6 5 5 4 3 2 1 1 1 2 2 3 3 3 3 4 4 4 5 6 6 7 6 6 7 8 8 7 6 5 5 5 5 4 5 5 5 4 4 4 4
7 7 6 6 5 4 3 2 1 0 0 1 2 3 3 3 4 4 5 5 6 6 7 7 7 7 8 8 9 9 8 8 7 6 6 6 6 7 7 7 6 5 5
7 6 6 6 5 4 3 2 2 1 0 1 1 2 3 3 4 5 6 6 6 7 7 7 8 8 8 9 8 9 9 9 8 8 7 8 8 8 8 8 7 7 7
7 6 5 5 5 4 3 3 2 1 1 2 2 2 3 3 4 5 6 7 7 7 7 8 7 9 9 9 9 9 9 9 9 9 9 9 9 9 9 8 8 9 9
6 6 5 5 5 5 4 4 3 1 1 2 3 4 4 4 5 5 6 6 7 7 7 7 7 7 9 9 9 9 9 9 10 10 10 11 10 10 10 10 10 10 10
7 6 5 4 4 4 4 3 3 3 2 2 4 5 5 5 5 5 5 6 7 7 7 8 8 8 9 10 10 10 10 11 11 12 12 12 12 12 12 12 11 11 11
7 7 6 5 5 5 5 4 3 4 4 3 4 5 5 6 6 6 6 6 7 7 8 8 9 10 10 10 10 10 11 11 12 13 13 13 13 13 14 13 13 13 13
8 7 6 6 6 5 5 5 4 5 5 5 5 6 6 7 7 8 7 7 7 8 9 9 10 11 11 11 11 11 11 12 12 13 13 13 14 14 14 14 15 15 15
8 8 7 6 6 6 5 5 5 6 5 6 6 7 7 8 8 8 8 8 8 8 9 9 10 11 11 12 11 11 12 13 14 14 14 14 15 15 16 16 16 16 16
9 8 8 8 7 6 6 6 6 6 6 6 7 7 7 7 8 9 9 9 8 9 10 11 11 11 11 11 11 12 12 13 14 15 16 15 16 17 18 18 18 17 17
9 9 8 8 8 6 6 6 6 6 7 7 7 7 7 7 7 8 9 9 9 10 10 10 11 12 12 12 12 12 13 12 12 14 15 16 17 18 19 18 18 18 18
9 8 9 9 9 8 7 7 6 6 7 8 8 8 8 7 7 8 9 10 10 11 10 11 11 12 12 12 12 12 13 14 13 14 15 16 17 18 18 19 19 19 20
10 10 10 10 10 9 8 8 7 7 7 8 8 8 8 8 8 8 9 10 11 11 11 11 12 12 13 14 13 13 14 15 16 16 17 18 19 19 19 19 20 21 21
Wind_Direction
73 71 79 98 108 110 112 116 113 109 107 103 100 98 100 100 100 100 99 101 109 114 116 117 117 115 114 112 106 105 104 98 94 98 99 102 100 105 110 116 117 122 125
74 74 79 102 111 111 116 119 118 114 109 106 103 102 101 100 101 103 97 96 106 110 119 120 116 117 116 114 112 111 109 105 99 95 95 99 99 104 108 110 111 116 120
78 78 85 96 103 109 117 117 119 120 119 115 111 107 104 106 108 108 103 103 108 112 117 124 119 118 119 116 116 118 118 111 101 99 98 99 102 106 103 102 100 100 102
81 85 89 95 99 106 115 118 118 124 126 123 116 109 104 105 111 109 109 109 112 116 120 119 118 119 121 119 117 117 117 105 98 96 96 100 99 105 106 103 93 91 97
82 90 93 93 94 102 112 117 119 126 125 123 116 111 104 102 104 110 116 112 117 121 121 118 119 126 124 122 122 121 119 117 117 109 98 99 95 98 102 100 95 91 94
83 90 94 96 98 102 110 118 114 118 117 118 124 123 116 114 110 110 120 115 116 121 129 126 127 134 132 127 128 129 127 129 135 132 114 110 105 96 93 85 85 78 77
84 90 94 99 102 103 106 119 115 108 110 114 125 128 127 128 127 122 124 117 125 127 130 135 134 144 139 138 149 157 137 150 143 144 127 123 122 92 82 77 88 71 60
88 89 94 98 101 102 101 111 114 105 108 114 127 131 126 132 134 131 134 127 132 140 153 165 162 154 155 152 165 172 161 165 160 143 136 131 123 97 91 77 61 38 35
89 95 95 101 101 101 99 108 110 108 112 121 132 140 140 140 145 142 151 147 154 170 182 198 195 180 175 170 178 189 192 194 195 157 200 202 170 124 77 24 25 14 13
88 95 92 98 100 104 102 104 118 111 124 124 138 160 175 169 160 145 159 167 184 192 207 217 212 201 198 194 201 212 221 231 245 241 234 241 225 207 208 306 358 23 17
82 87 88 88 87 95 100 95 118 126 148 142 169 188 203 208 196 187 203 219 219 211 213 228 228 224 218 209 207 223 239 242 243 247 246 252 238 230 219 245 271 278 318
76 80 77 78 85 89 92 100 120 156 168 167 182 207 221 213 214 209 232 239 240 233 223 223 233 236 230 223 222 227 233 237 239 260 249 250 248 247 246 262 277 283 287
72 72 66 67 72 82 85 98 118 154 177 178 207 216 223 225 228 226 244 252 242 236 235 230 237 241 234 231 229 227 235 239 242 260 255 252 252 254 252 258 269 281 297
64 62 59 56 66 75 69 65 111 161 180 212 228 226 230 235 242 243 248 246 235 239 239 235 238 245 243 237 233 233 238 241 248 258 258 257 259 259 259 264 267 282 292
52 53 53 49 56 57 44 15 15 185 239 225 224 228 236 245 247 252 250 247 245 247 243 241 247 246 247 243 239 238 239 242 247 254 258 259 262 263 260 263 267 280 280
44 49 47 47 44 42 26 2 337 290 287 246 232 240 259 261 254 256 256 249 250 252 246 238 250 249 252 246 241 238 242 244 239 248 258 263 268 267 266 264 269 275 275
40 44 41 37 26 17 10 356 338 290 261 251 244 251 261 271 264 259 254 257 264 263 261 255 253 252 252 246 246 245 243 244 244 250 261 265 271 271 268 268 267 272 275
28 34 34 26 16 10 3 354 347 316 280 273 271 265 263 270 271 275 264 263 266 268 261 259 262 256 254 251 248 246 249 249 249 254 263 266 268 269 266 265 265 270 274
13 13 16 15 6 2 354 350 349 339 308 284 275 275 273 274 270 277 273 266 263 266 263 257 258 261 258 253 249 252 251 248 252 255 261 266 267 267 268 266 264 270 271
10 5 8 6 359 357 356 354 343 335 331 300 280 274 274 277 274 277 277 270 266 267 270 267 262 265 260 259 260 263 262 263 262 260 262 266 268 266 267 268 267 267 268
0 357 352 355 354 346 341 344 343 337 328 316 296 276 272 273 277 283 280 274 270 267 267 272 272 266 264 266 265 267 265 265 265 267 266 267 267 268 270 268 267 267 268
347 349 346 345 343 336 335 335 331 330 324 315 307 279 273 272 274 277 285 280 276 270 265 267 269 270 272 269 266 268 268 268 267 267 266 266 268 268 269 269 269 266 268
340 342 341 337 333 330 332 330 326 328 324 314 308 292 277 272 271 273 280 280 276 273 268 267 270 272 275 274 271 270 270 271 269 268 270 269 268 269 269 269 268 267 269
338 342 342 339 337 332 327 326 324 324 324 317 313 305 291 285 272 269 274 278 278 282 280 275 273 271 273 273 275 274 276 280 277 267 270 272 273 273 272 270 269 269 269
331 336 339 336 331 325 320 315 315 314 319 321 321 314 293 284 284 278 274 278 278 278 281 281 278 276 276 277 277 278 279 282 281 275 271 274 277 278 276 272 270 270 269
327 326 326 323 317 315 312 310 311 312 315 317 316 313 302 291 292 290 288 282 281 282 282 285 281 280 279 277 277 279 280 281 282 276 274 274 277 277 275 272 270 270 271
Height
5880 5878 5877 5876 5878 5881 5882 5883 5885 5885 5886 5887 5888 5889 5889 5890 5890 5891 5892 5893 5893 5894 5894 5895 5896 5896 5897 5897 5897 5898 5898 5898 5898 5899 5899 5899 5899 5900 5900 5900 5901 5901 5901
5881 5879 5876 5875 5879 5882 5883 5885 5886 5887 5888 5888 5889 5890 5891 5891 5892 5892 5893 5894 5894 5895 5896 5897 5897 5897 5898 5898 5898 5899 5899 5899 5900 5900 5900 5900 5900 5901 5901 5901 5901 5901 5902
5883 5882 5881 5880 5882 5884 5885 5886 5887 5888 5889 5890 5890 5891 5891 5892 5893 5894 5894 5895 5896 5896 5897 5898 5898 5898 5899 5899 5899 5900 5900 5900 5900 5901 5901 5901 5901 5901 5902 5902 5902 5902 5902
5884 5884 5884 5884 5885 5885 5886 5887 5888 5889 5890 5890 5891 5892 5893 5893 5894 5895 5895 5896 5897 5897 5898 5898 5899 5899 5900 5900 5900 5901 5901 5901 5901 5902 5902 5902 5902 5902 5902 5902 5902 5902 5902
5886 5886 5886 5886 5886 5887 5887 5888 5889 5890 5890 5891 5892 5893 5894 5894 5895 5895 5896 5897 5898 5898 5899 5899 5900 5900 5900 5901 5901 5902 5902 5902 5902 5903 5903 5903 5903 5903 5903 5903 5903 5903 5903
5887 5887 5887 5887 5887 5888 5888 5889 5890 5890 5891 5892 5893 5893 5894 5895 5895 5896 5897 5898 5898 5899 5900 5900 5900 5901 5901 5902 5902 5902 5903 5903 5903 5903 5903 5903 5903 5903 5903 5903 5903 5903 5903
5889 5888 5888 5889 5889 5889 5889 5890 5890 5891 5892 5893 5893 5894 5894 5895 5896 5897 5898 5898 5899 5899 5900 5901 5901 5901 5901 5902 5902 5903 5903 5903 5903 5903 5904 5904 5904 5904 5904 5904 5904 5904 5903
5890 5890 5889 5889 5889 5890 5890 5890 5891 5891 5892 5893 5894 5894 5895 5896 5897 5897 5898 5899 5899 5900 5900 5901 5901 5901 5902 5902 5903 5903 5903 5903 5903 5904 5904 5904 5904 5904 5904 5904 5904 5904 5904
5890 5890 5890 5890 5891 5891 5891 5891 5891 5892 5893 5893 5894 5895 5895 5896 5897 5897 5898 5899 5899 5900 5900 5901 5901 5901 5902 5902 5903 5903 5903 5903 5904 5904 5904 5904 5904 5904 5904 5904 5904 5904 5904
5891 5891 5891 5891 5891 5892 5892 5891 5892 5892 5893 5894 5894 5895 5896 5896 5897 5898 5898 5898 5899 5899 5900 5900 5901 5901 5902 5902 5902 5903 5903 5903 5904 5904 5904 5904 5904 5904 5905 5905 5905 5904 5904
5892 5892 5892 5892 5892 5892 5892 5892 5892 5893 5893 5894 5894 5895 5896 5897 5897 5898 5898 5898 5899 5899 5899 5900 5900 5901 5901 5902 5902 5902 5903 5903 5903 5904 5904 5904 5904 5904 5904 5905 5905 5905 5904
5893 5893 5893 5893 5893 5893 5893 5893 5893 5893 5893 5894 5895 5895 5896 5896 5897 5897 5898 5898 5898 5898 5898 5899 5900 5900 5900 5901 5901 5901 5902 5903 5903 5903 5903 5904 5904 5904 5904 5904 5904 5904 5904
5894 5894 5894 5894 5894 5893 5894 5894 5893 5893 5893 5894 5895 5895 5896 5896 5896 5897 5897 5897 5896 5897 5898 5898 5899 5899 5899 5900 5900 5901 5901 5902 5903 5903 5903 5903 5903 5904 5904 5904 5904 5904 5904
5896 5895 5895 5894 5894 5894 5894 5894 5893 5893 5893 5893 5894 5895 5895 5895 5896 5896 5896 5896 5896 5896 5897 5897 5898 5898 5898 5899 5899 5900 5901 5902 5902 5902 5902 5903 5903 5903 5903 5903 5903 5903 5903
5897 5896 5896 5895 5895 5895 5894 5894 5894 5893 5893 5893 5893 5894 5894 5895 5895 5895 5895 5896 5895 5895 5896 5896 5897 5897 5897 5897 5898 5899 5899 5900 5901 5901 5902 5902 5902 5902 5902 5902 5902 5902 5902
5898 5897 5897 5896 5896 5895 5895 5894 5893 5893 5892 5892 5893 5893 5893 5894 5894 5894 5894 5894 5894 5894 5894 5895 5895 5895 5896 5896 5897 5897 5898 5899 5900 5900 5901 5901 5901 5901 5901 5901 5901 5901 5901
5898 5898 5897 5897 5896 5895 5895 5894 5893 5893 5892 5892 5892 5892 5893 5893 5892 5893 5893 5893 5893 5893 5893 5893 5894 5894 5894 5894 5895 5896 5896 5897 5898 5898 5899 5899 5899 5899 5900 5899 5899 5900 5900
5899 5898 5897 5897 5896 5895 5894 5894 5893 5892 5892 5892 5892 5892 5892 5892 5892 5892 5892 5892 5892 5892 5892 5892 5892 5892 5893 5893 5894 5894 5895 5895 5896 5897 5897 5897 5897 5898 5898 5898 5898 5898 5898
5899 5898 5897 5897 5896 5895 5894 5893 5893 5892 5891 5891 5891 5891 5891 5891 5890 5891 5891 5891 5890 5890 5890 5891 5891 5891 5891 5891 5892 5892 5893 5893 5894 5895 5895 5895 5895 5895 5896 5896 5896 5896 5896
5899 5898 5898 5897 5896 5895 5894 5893 5893 5892 5891 5890 5890 5890 5890 5890 5889 5889 5889 5889 5889 5889 5889 5889 5890 5890 5890 5890 5890 5890 5891 5891 5892 5892 5893 5893 5893 5893 5893 5893 5893 5893 5893
5899 5898 5897 5897 5896 5895 5894 5893 5892 5891 5890 5889 5889 5889 5889 5888 5888 5888 5887 5887 5887 5888 5888 5888 5888 5888 5888 5888 5888 5888 5889 5889 5889 5890 5890 5890 5890 5890 5890 5890 5890 5890 5890
5899 5898 5897 5896 5895 5894 5893 5893 5892 5891 5890 5889 5887 5887 5886 5886 5886 5886 5886 5886 5886 5886 5886 5886 5886 5886 5885 5885 5886 5886 5887 5888 5887 5887 5887 5887 5887 5887 5887 5887 5887 5887 5887
5898 5897 5896 5895 5894 5894 5893 5892 5891 5890 5889 5888 5886 5885 5884 5884 5884 5884 5884 5884 5884 5884 5884 5884 5884 5883 5883 5883 5883 5884 5884 5884 5884 5884 5884 5884 5884 5884 5883 5883 5883 5883 5883
5897 5896 5895 5894 5893 5892 5892 5891 5890 5889 5888 5886 5885 5884 5883 5882 5882 5882 5882 5882 5882 5882 5882 5881 5881 5881 5881 5881 5881 5881 5881 5881 5881 5881 5881 5880 5880 5879 5879 5878 5878 5878 5878
5895 5894 5894 5893 5892 5891 5890 5889 5888 5888 5886 5885 5884 5882 5881 5881 5880 5880 5880 5879 5879 5879 5879 5879 5879 5879 5878 5878 5878 5878 5877 5877 5877 5877 5877 5877 5876 5875 5874 5874 5874 5874 5874
5894 5893 5892 5891 5890 5889 5888 5888 5887 5886 5885 5884 5883 5882 5880 5879 5879 5879 5878 5877 5877 5876 5876 5876 5876 5875 5875 5875 5875 5874 5874 5874 5873 5873 5873 5872 5871 5870 5869 5869 5869 5869 5869